Location: Arnolds Mill
(42.3415°N, 73.5951°W)
Time: 13:40:27
(UTC+00:00)

STARLINK-34400 - Pass Details

Date: 23 June 2025
Orbit: 299 x 300 km, 53.2° (Epoch: 26 June)

Event Time Altitude Azimuth Distance (km) Brightness Sun altitude
Exits shadow 05:55:25 19° 350° (N) 806 5.2 -22.8°
Drops below altitude 10° 05:56:59 10° 26° (NNE) 1,169 6.4 -22.8°
Sets 05:59:13 0° 45° (NE) 1,989 7.5 -22.7°
